This demonstration page uses our WeatherBlox Daily Observations layout. Learn more.

Left ArrowRight Arrow

Hourly Observations for May 7, 2020

Temp ( °F °C ) Dew Point ( °F °C ) Humidity (%) Winds ( mph kmh ) Pressure ( in mb ) Visibility ( mi km ) Precip ( " mm )
12:51 am 00:51 Clear 79 26.1 20 -6.7 11 11 NW 10 17 29.77 1008 10 16.0934 0 0
1:51 am 01:51 Clear 72 22.2 19 -7.2 13 13 NNW 9 15 29.78 1008 10 16.0934 0 0
2:51 am 02:51 Clear 67 19.4 21 -6.1 17 17 SSE 5 7 29.77 1008 10 16.0934 0 0
3:51 am 03:51 Clear 66 18.9 21 -6.1 18 18 SSE 8 13 29.77 1008 10 16.0934 0 0
4:51 am 04:51 Clear 61 16.1 22 -5.6 22 22 E 5 7 29.79 1009 10 16.0934 0 0
5:51 am 05:51 Sunny 58 14.4 20 -6.7 23 23 SE 3 6 29.82 1010 10 16.0934 0 0
6:51 am 06:51 Sunny 66 18.9 22 -5.6 19 19 SSE 5 7 29.83 1010 10 16.0934 0 0
7:51 am 07:51 Sunny 74 23.3 23 -5 15 15 Calm 29.83 1010 10 16.0934 0 0
8:51 am 08:51 Sunny 83 28.3 22 -5.6 10 10 Calm 29.81 1010 10 16.0934 0 0
9:51 am 09:51 Sunny 88 31.1 24 -4.4 10 10 W 6 9 29.8 1009 10 16.0934 0 0
10:51 am 10:51 Sunny 94 34.4 20 -6.7 7 7 WNW 5 7 29.78 1008 10 16.0934 0 0
11:51 am 11:51 Sunny 97 36.1 20 -6.7 6 6 NW 14 22 29.75 1008 10 16.0934 0 0
12:51 pm 12:51 Sunny 98 36.7 19 -7.2 6 6 W 12 19 29.72 1006 10 16.0934 0 0
1:51 pm 13:51 Sunny 100 37.8 20 -6.7 5 5 WNW 21 33 29.7 1006 10 16.0934 0 0
2:51 pm 14:51 Sunny 101 38.3 17 -8.3 5 5 WNW 21 33 29.69 1005 10 16.0934 0 0
3:51 pm 15:51 Sunny 100 37.8 17 -8.3 5 5 W 22 35 29.67 1005 10 16.0934 0 0
4:51 pm 16:51 Sunny 98 36.7 16 -8.9 5 5 WNW 25 41 29.68 1005 10 16.0934 0 0
5:51 pm 17:51 Sunny 96 35.6 15 -9.4 5 5 WNW 23 37 29.69 1005 10 16.0934 0 0
6:51 pm 18:51 Sunny 92 33.3 17 -8.3 6 6 WNW 15 24 29.69 1005 10 16.0934 0 0
7:51 pm 19:51 Clear 85 29.4 18 -7.8 8 8 NW 8 13 29.7 1006 10 16.0934 0 0
8:51 pm 20:51 Clear 81 27.2 16 -8.9 9 9 NW 8 13 29.72 1006 10 16.0934 0 0
9:51 pm 21:51 Clear 78 25.6 16 -8.9 9 9 W 7 11 29.73 1007 10 16.0934 0 0
10:51 pm 22:51 Clear 75 23.9 18 -7.8 11 11 W 10 17 29.74 1007 10 16.0934 0 0
11:51 pm 23:51 Clear 71 21.7 18 -7.8 13 13 WNW 10 17 29.74 1007 10 16.0934 0 0

Powered by AerisWeather